This is the latest recevied weather packets stored in our database for station/object CRYC. If no packets are shown the sender has not sent any weather packets the latest 1 day(s).
| Time | Temp. | Humidity | Pressure | Rain* | Wind** | Luminosity | Snow |
|---|---|---|---|---|---|---|---|
| 1778078346 | 18.89° C | - | - | 0 mm | 4.92 m/s, 252° | - | - |
| 1778075917 | 20° C | - | - | 0 mm | 4.47 m/s, 249° | - | - |
| 1778073493 | 21.11° C | - | - | 0 mm | 4.02 m/s, 233° | - | - |
| 1778072889 | 20.56° C | - | - | 0 mm | 4.47 m/s, 246° | - | - |
| 1778070468 | 20° C | - | - | 0 mm | 5.36 m/s, 242° | - | - |
| 1778069858 | 19.44° C | - | - | 0 mm | 4.47 m/s, 210° | - | - |
| 1778069253 | 20° C | - | - | 0 mm | 6.26 m/s, 245° | - | - |
| 1778065625 | 18.89° C | - | - | 0 mm | 2.68 m/s, 222° | - | - |
| 1778065018 | 19.44° C | - | - | 0 mm | 2.68 m/s, 211° | - | - |
| 1778063808 | 20.56° C | - | - | 0 mm | 3.13 m/s, 214° | - | - |
| 1778061993 | 17.78° C | - | - | 0 mm | 2.24 m/s, 172° | - | - |
| 1778060784 | 17.78° C | - | - | 0 mm | 1.79 m/s, 176° | - | - |
| 1778060178 | 17.78° C | - | - | 0 mm | 2.68 m/s, 245° | - | - |
| 1778058363 | 17.78° C | - | - | 0 mm | 3.13 m/s, 252° | - | - |
| 1778057154 | 17.78° C | - | - | 0 mm | 2.24 m/s, 242° | - | - |
| 1778056549 | 17.78° C | - | - | 0 mm | 3.13 m/s, 190° | - | - |
| 1778055942 | 17.78° C | - | - | 0 mm | 1.34 m/s, 263° | - | - |
| 1778055336 | 17.78° C | - | - | 0 mm | 1.79 m/s, 152° | - | - |
| 1778054736 | 17.78° C | - | - | 0 mm | 3.13 m/s, 198° | - | - |
| 1778053522 | 18.33° C | - | - | 0 mm | 0.89 m/s, 205° | - | - |
| 1778051709 | 18.33° C | - | - | 0 mm | 4.92 m/s, 249° | - | - |
| 1778051105 | 18.33° C | - | - | 0 mm | 3.13 m/s, 283° | - | - |
| 1778049294 | 18.89° C | - | - | 0 mm | 2.68 m/s, 224° | - | - |
| 1778046258 | 19.44° C | - | - | 0 mm | 5.81 m/s, 226° | - | - |
| 1778045654 | 20° C | - | - | 0 mm | 4.47 m/s, 224° | - | - |
* Rain latest hour (hover to see other rain measurements)
** Current wind speed in m/s (hover to see current wind gust speed)